Вернуться в каталог

CZ-4 DEB

АктивенPO
NORAD 26152·DEBRIS·🇨🇳 China

Запущен Oct 14, 1999 с Taiyuan Satellite Launch Center

Loading…

Ближайшие Пролёты (ближайшие 24 часа)

TLE

СвежийSource: Space-Track

Эпоха: Sep 13, 2026, 23:15 UTC

1 26152U 99057AN  26256.96937412  .00000413  00000-0  38081-3 0  9999
2 26152  99.1375 256.6738 0520503  89.4555 304.8791 13.38580080289984

Отслеживайте CZ-4 DEB в реальном времени с AllMySat

Download on the App Store